Location: Newark
(52.8300°N, 8.0000°E)
Time: 08:35:28
(UTC+00:00)

N. Korean satellite - Visible Passes

Search period start: 20 January 2020 00:00
Search period end: 30 January 2020 00:00
Orbit: 454 x 508 km, 97.2° (Epoch: 19 January)

Date Brightness Start Highest point End Pass type
(mag) Time Alt. Az. Time Alt. Az. Time Alt. Az.
20 Jan 8.8 04:43:40 10° NE 04:46:40 26° E 04:49:41 10° SSE visible
20 Jan 7.3 06:16:58 10° N 06:20:05 30° WNW 06:23:13 10° SW visible
20 Jan 8.7 16:58:11 10° SSW 17:01:14 30° W 17:04:19 10° NNW visible
21 Jan 9.7 04:18:55 10° NE 04:20:57 15° E 04:23:01 10° SE visible
21 Jan 6.5 05:51:14 10° N 05:54:41 55° WNW 05:58:10 10° SSW visible
21 Jan 7.2 16:32:16 10° S 16:35:38 58° W 16:39:02 10° NNW visible
22 Jan 6.6 05:25:39 10° NNE 05:29:12 76° ESE 05:32:46 10° S visible
22 Jan 10.1 17:42:56 10° WSW 17:43:59 11° W 17:45:02 10° WNW visible
23 Jan 8.0 05:00:17 10° NNE 05:03:38 39° E 05:07:01 10° SSE visible
23 Jan 7.8 06:34:07 10° NNW 06:36:51 21° WNW 06:39:36 10° WSW visible
23 Jan 9.5 17:15:38 10° SW 17:18:13 20° W 17:20:51 10° NW visible
24 Jan 9.2 04:35:11 10° NE 04:38:00 21° E 04:40:49 10° SE visible
24 Jan 7.1 06:08:13 10° N 06:11:30 36° WNW 06:14:49 10° SW visible
24 Jan 8.3 16:49:22 10° SSW 16:52:33 36° W 16:55:47 10° NNW visible
25 Jan 10.0 04:10:44 10° ENE 04:12:15 12° E 04:13:47 10° ESE visible
25 Jan 6.4 05:42:32 10° N 05:46:04 69° WNW 05:49:39 10° SSW visible
26 Jan 7.1 05:17:02 10° NNE 05:20:33 61° E 05:24:08 10° S visible
26 Jan 9.9 17:33:26 10° WSW 17:35:14 14° W 17:37:03 10° WNW visible
27 Jan 8.4 04:51:42 10° NNE 04:54:59 32° E 04:58:15 10° SSE visible
27 Jan 7.6 06:25:17 10° N 06:28:17 25° WNW 06:31:17 10° WSW visible
27 Jan 9.1 17:06:39 10° SSW 17:09:30 24° W 17:12:24 10° NW visible
28 Jan 9.5 04:26:44 10° NE 04:29:18 18° E 04:31:52 10° SE visible
28 Jan 6.8 05:59:28 10° N 06:02:54 45° WNW 06:06:22 10° SW visible
28 Jan 7.8 16:40:33 10° S 16:43:51 46° W 16:47:13 10° NNW visible
29 Jan 10.2 04:03:03 10° ENE 04:03:31 10° E 04:03:59 10° E visible
29 Jan 6.5 05:33:50 10° NNE 05:37:26 86° WNW 05:41:05 10° SSW visible
